Location: ??????????
(31.2156°N, 29.9553°E)
Time: 07:09:24
(UTC+00:00)

HJ-1C - Pass Details

Date: 03 March 2021
Orbit: 428 x 440 km, 97.1° (Epoch: 15 April)

Event Time Altitude Azimuth Distance (km) Brightness Sun altitude
Rises 16:54:17 0° 160° (SSE) 2,413 6.9 -12.4°
Reaches altitude 10° 16:56:19 10° 156° (SSE) 1,547 5.9 -12.8°
Maximum altitude 16:59:34 56° 77° (ENE) 529 3.4 -13.5°
Drops below altitude 10° 17:02:50 10° 358° (N) 1,551 6.2 -14.2°
Sets 17:04:52 0° 354° (N) 2,421 7.2 -14.7°
